COSMOS 2361 1 25590U 98076A 22146.35546135 .00000056 00000-0 44535-4 0 9994 2 25590 82.9361 222.4805 0030090 269.7433 160.9883 13.73019188173200 COSMOS 2378 1 26818U 01023A 22146.47965816 .00000087 00000-0 76939-4 0 9995 2 26818 82.9296 240.4684 0031996 214.1339 145.7758 13.73970019 51296 COSMOS 2389 1 27436U 02026A 22146.53966375 .00000069 00000-0 55676-4 0 9999 2 27436 82.9511 186.2062 0047840 77.4090 33.1894 13.74975006 3356 COSMOS 2398 1 27818U 03023A 22146.46731307 .00000051 00000-0 38625-4 0 9994 2 27818 82.9464 147.7968 0032655 111.3140 249.1516 13.72209928950370 COSMOS 2407 1 28380U 04028A 22146.47660316 .00000095 00000-0 80745-4 0 9995 2 28380 82.9591 92.6976 0040803 78.7156 281.8593 13.76113526896144 COSMOS 2414 1 28521U 05002A 22146.47387161 .00000115 00000-0 83592-4 0 9995 2 28521 82.9493 84.8519 0038750 236.0829 123.6644 13.87656768878504 COSMOS 2429 1 32052U 07038A 22146.54234724 .00000039 00000-0 24529-4 0 9994 2 32052 82.9826 218.4434 0039599 56.8271 303.6674 13.74960970737898 COSMOS 2454 1 35635U 09039A 22146.40997034 .00000101 00000-0 69232-4 0 9992 2 35635 82.9570 71.2881 0018848 177.1037 183.0239 13.89686094651638 COSMOS 2463 1 36519U 10017A 22146.40243222 .00000030 00000-0 16888-4 0 9995 2 36519 82.9609 258.9901 0034816 284.5424 139.8667 13.71474184604678